Volver al catálogo

QIANFAN-229

ActivoComunicacionesPO
NORAD 69858·PAYLOAD·🇨🇳 China

Lanzado Jul 5, 2026 desde Wenchang Space Launch Site

Loading…

Próximos Pases (próximas 24 horas)

TLE

ActualizadoSource: Space-Track

Época: Sep 14, 2026, 21:49 UTC

1 69858U 26155L   26257.90962438 -.01781865  00000-0 -28986+1 0  9999
2 69858  89.0088  54.2642 0033745  30.8376 329.4749 13.51908196  9980

Sigue QIANFAN-229 en tiempo real con AllMySat

Download on the App Store